Regional Weather Roundup
Issued by NWS State College, PA

Home | Current Version | Previous Version | Graphics & Text | Print | Product List | Glossary Off
Versions: 1 2 3 4 5 6 7 8 9 10 11 12 13 14 15 16 17 18 19 20 21 22 23 24 25 26 27 28 29 30 31 32 33 34 35 36 37 38 39 40 41 42 43 44 45 46 47 48 49 50

362
ASUS41 KCTP 241303
RWRCTP

REGIONAL WEATHER ROUNDUP
NATIONAL WEATHER SERVICE STATE COLLEGE PA
800 AM EST TUE JAN 24 2017

Note: "fair" indicates few or no clouds below 12,000 feet with no
significant weather and/or obstructions to visibility.

* = STATION THAT DOES NOT REPORT PRECIPITATION /E.G. RAIN...SNOW...ETC/
    THUNDER OR FOG.

PAZ002>004-007>009-013>016-020>023-029>032-241400-
WESTERN PENNSYLVANIA

CITY           SKY/WX    TMP DP  RH WIND       PRES   REMARKS
ERIE           CLOUDY    34  31  88 N9        29.69R
MEADVILLE      CLOUDY    32  29  88 N13       29.64R
FRANKLIN*        N/A     36  32  87 NW5       29.62R
NEW CASTLE     LGT RAIN  37  35  92 NW9       29.66R
BEAVER COUNTY  LGT RAIN  36  36 100 W7        29.59R
BUTLER*        CLOUDY    36  34  93 W8        29.64R
PITTSBURGH INT LGT SNOW  36  36 100 W7        29.63S FOG
PITTSBURGH     LGT RAIN  36  33  89 W10       29.64R FOG
INDIANA*       FOG       34  34 100 NW5       29.63R VSB 1
LATROBE        LGT SNOW  32  32 100 W7        29.64R FOG
WASHINGTON CO* CLOUDY    36  34  93 W7        29.65S
$$

PAZ004>006-010>012-017>019-024>028-033>037-041-042-045-046-049>053-241400-
CENTRAL PENNSYLVANIA

CITY           SKY/WX    TMP DP  RH WIND       PRES   REMARKS
BRADFORD       LGT SNOW  30  29  96 N7        29.56R FOG
DUBOIS         LGT SNOW  32  30  92 NW7       29.57R VSB 3/4
CLEARFIELD     CLOUDY    32  32 100 CALM      29.57R FOG
JOHNSTOWN      SNOW      31  31 100 NW12      29.54R VSB 1/4
ALTOONA        LGT SNOW  34  32  92 NW6       29.55S FOG
STATE COLLEGE  LGT SNOW  32  32 100 CALM      29.55F
WILLIAMSPORT   SNOW      34  32  92 W9        29.55S VSB 1/2
SELINSGROVE    LGT RAIN  35  33  92 N6        29.55R
FT INDIANTOWN  CLOUDY    37  36  99 NW18G28   29.47S
CAPITAL CITY   CLOUDY    38  33  82 NW10G18   29.51S
HARRISBURG     CLOUDY    37  35  92 NW14      29.50S
YORK           CLOUDY    36  36 100 NW12      29.50S
$$

PAZ038>040-043-044-047-048-054-055-060>062-067>071-241400-
EASTERN PENNSYLVANIA

CITY           SKY/WX    TMP DP  RH WIND       PRES   REMARKS
SCRANTON       CLOUDY    34  32  92 NE8       29.48S
MOUNT POCONO   CLOUDY    31  28  89 N9        29.40S FOG
ALLENTOWN      LGT RAIN  38  32  79 N13       29.44F
QUAKERTOWN*    CLOUDY    36  34  93 N9G17     29.42S
READING        CLOUDY    38  35  89 NW10      29.45S
LANCASTER      CLOUDY    37  36  96 NW14      29.47S
COATESVILLE    CLOUDY    37  36  93 N12G20    29.43S FOG
POTTSTOWN      CLOUDY    36  34  92 N9        29.44S
BLUE BELL      CLOUDY    34  32  93 N6G16     29.40R
DOYLESTOWN     LGT RAIN  36  34  92 N10G18    29.39S
WILLOW GROVE   NOT AVBL
NORTH PHILA    MIX PCPN  37  34  89 N22G28    29.39S FOG
PHILADELPHIA   CLOUDY    38  33  82 N16G30    29.40R
$$




USA.gov is the U.S. government's official web portal to all federal, state and local government web resources and services.